一网星座-0108星 (ONEWEB-0108 )

导读 | 星芒AI

ONEWE-0108 是 OneWeb 通信卫星星座计划中的一颗低轨通信卫星,旨在为全球提供高速互联网服务。该卫星由空中客车防务与航天公司制造,采用标准化设计以提高部署效率。它运行在约 1200 公里的近地轨道,与其他 OneWeb 卫星协同工作,支持偏远和未覆盖地区的宽带接入。ONEWE-0108 的发射进一步增强了 OneWeb 的全球网络覆盖能力,助力实现数字包容和通信公平。

基本信息
目录编号:
48076
目录名称:
ONEWEB-0108
国际标识:
2021-025AL
轨道中心:
EARTH
卫星名称:
一网星座-0108星
卫星全名:
一网星座-0108星 (ONEWEB-0108 )
卫星状态:
在轨 (已飞行1726 天)
发射日期:
2021-03-25 UTC
国别 :
英国 (GB)
星等 :
--
轨道信息
数据来源 国际轨道数据
星历时间: 2025-12-14T21:46:09+0800
1天前
查看轨道信息
半长轴: 7587.902km
偏心率: 0.0001849
轨道倾角: 87.898°
近地点辐角 96.912°
升交点赤经 356.898°
平近点角 263.222°
近地点: 1208.363km
远地点: 1211.171km
周期: 109.633分钟
每日圈数: 13.134702
详细信息
平衡模式:
三轴稳定
覆盖范围:
全球
运营商:
一网卫星公司
运营商所在国:
英国
制造商(研发单位):
一网卫星公司
制造商所在国:
英国
使用方式:
暂无
卫星简介
OneWeb卫星网络由648颗重约125公斤的微型卫星组成,运行在1200公里的轨道上。 每颗卫星都能够提供至少每秒8千兆位的吞吐量,以使用其高吞吐量的Ku频段有效载荷为家庭和移动平台提供互联网接入。该卫星仍在工作。
2D轨道图
3D轨道图
轨道高度分析图
轨道倾角分析图
轨道综合分析图
查看轨道综合分析图